Powrót do katalogu

SL-18 DEB

AktywnyLEO
NORAD 28292·DEBRIS·🇷🇺 Russia

Wystrzelony Mar 25, 1993 z Plesetsk Cosmodrome

Loading…

Następne Przeloty (najbliższe 24 godziny)

TLE

ŚwieżeSource: Space-Track

Epoka: Sep 14, 2026, 08:06 UTC

1 28292U 93014V   26257.33758716  .00000970  00000-0  24264-3 0  9999
2 28292  75.7528 251.3767 0129986 210.3487 149.0113 14.47285584696895

Śledź SL-18 DEB w czasie rzeczywistym z AllMySat

Download on the App Store